Powrót do katalogu

TITAN 3C TRANSTAGE DEB

LostHEO
NORAD 40551·DEBRIS·🇺🇸 United States

Wystrzelony Dec 21, 1965 z Cape Canaveral Space Force Station

Loading…

Następne Przeloty (najbliższe 24 godziny)

TLE

NieaktualneSource: Space-Track

Epoka: Sep 12, 2025, 05:57 UTC

1 40551U 65108DR  25255.24810346  .00000053  00000-0  17301-2 0  9994
2 40551  26.3678 174.2868 6826893 208.8141  84.6448  2.63623077159860

Śledź TITAN 3C TRANSTAGE DEB w czasie rzeczywistym z AllMySat

Download on the App Store